Starlink 33749

operational
NORAD ID: 63716 Int'l Des: 2025-087 Owner: SPXS Country: US Constellation: starlink
LEOCIRCULAR

Über Starlink 33749

Beschreibung wird geladen...

Live-Position

3D-Globus wird geladen...

Nächste Überflüge

Höhenverlauf

Altitude vs Time

uPlot chart will show altitude changes over time

Zweizeiliger Elementsatz

1 63716U 25087V 25258.43484312 .00048674 00000-0 16419-2 0 9998
2 63716 53.1579 313.8588 0002315 102.1026 258.0234 15.30255376 22368
Epoch: 15. Sept. 2025 • Age: 21 hours

Aktueller Status

Höhe 479.7 km
Geschwindigkeit 7.63 km/s
Subsatellitenpunkt -17.28°S, 32.29°E
Startdatum 28. Apr. 2025
Alter 0.3 years
Typ internet

Technische Details

Klassifizierung Payload
Masse 575.00 kg
Trockenmasse 530.00 kg
Gesamtmasse 575.00 kg
Länge 0.30 m
Durchmesser 4.10 m
Spannweite 29.00 m
Form Box + pan
Hersteller SPXS
Bus-Typ Starlink V2MO
Phasenstatus In Orbit
Besitzer/Staat SPXS/US

Große Konstellationen

Loading constellations...